Location: Potomac
(46.8816°N, 113.5795°W)
Time: 11:16:55
(UTC+00:00)

AO-91 - Pass Details

Date: 30 June 2022
Orbit: 450 x 797 km, 97.7° (Epoch: 11 August)

Event Time Altitude Azimuth Distance (km) Brightness Sun altitude
Rises 07:02:25 0° 5° (N) 2,558 ? -19.5°
Reaches altitude 10° 07:04:39 10° 355° (N) 1,640 ? -19.5°
Maximum altitude 07:07:48 33° 291° (WNW) 799 ? -19.6°
Enters shadow 07:08:54 26° 253° (WSW) 937 ? -19.6°
